• Processing (Info)

  • MPEC 2013-G62 : 2013 GV68

    The following Minor Planet Electronic Circular may be linked-to from your own Web pages, but must not otherwise be redistributed electronically.

    A form allowing access to any MPEC is at the bottom of this page.


    Read MPEC 2013-G61 Read MPEC 2013-G63


    M.P.E.C. 2013-G62                                Issued 2013 Apr. 13, 02:05 UT
    
         The Minor Planet Electronic Circulars contain information on unusual
             minor planets and routine data on comets.  They are published
       on behalf of Commission 20 of the International Astronomical Union by the
              Minor Planet Center, Smithsonian Astrophysical Observatory,
                              Cambridge, MA 02138, U.S.A.
    
                 Prepared using the Tamkin Foundation Computer Network
    
                                  MPC@CFA.HARVARD.EDU
                URL https://www.minorplanetcenter.net/    ISSN 1523-6714
    
                                       2013 GV68
    
    Observations:
         K13G68V* C2013 04 11.30589 15 12 58.14 -03 17 43.0          18.6 VoEG062691
         K13G68V  C2013 04 11.32358 15 12 49.99 -03 17 14.1          18.6 VoEG062691
         K13G68V  C2013 04 11.34122 15 12 41.71 -03 16 45.6          20.1 VoEG062691
         K13G68V HC2013 04 11.43988 15 11 56.63 -03 14 06.5                oEG062291
         K13G68V HC2013 04 11.44026 15 11 56.45 -03 14 05.8                oEG062291
         K13G68V HC2013 04 11.44064 15 11 56.28 -03 14 05.2                oEG062291
         K13G68V KC2013 04 11.45646 15 11 48.97 -03 13 39.4          17.7 RqEG062H15
         K13G68V KC2013 04 11.46008 15 11 47.26 -03 13 34.2          17.8 RqEG062H15
         K13G68V KC2013 04 11.46369 15 11 45.64 -03 13 28.1          17.7 RqEG062H15
         K13G68V KC2013 04 12.17809 15 06 31.02 -02 54 11.2          18.2 VuEG062I39
         K13G68V KC2013 04 12.21450 15 06 14.86 -02 53 14.8          18.4 VuEG062I39
         K13G68V KC2013 04 12.24199 15 06 02.71 -02 52 32.2          18.5 VuEG062I39
         K13G68V KC2013 04 12.41477 15 04 47.50 -02 48 33.4          18.2 RqEG062H36
         K13G68V KC2013 04 12.41716 15 04 46.45 -02 48 29.7          18.3 RqEG062H36
         K13G68V KC2013 04 12.42194 15 04 44.29 -02 48 22.8          18.3 RqEG062H36
         K13G68V  C2013 04 12.63878 15 03 12.20 -02 42 23.3          18.0 VoEG062E23
         K13G68V  C2013 04 12.64086 15 03 11.30 -02 42 20.5          18.2 VoEG062E23
         K13G68V  C2013 04 12.64295 15 03 10.39 -02 42 16.8          18.4 VoEG062E23
         K13G68V KC2013 04 12.91794 15 01 14.61 -02 35 51.0          18.4 VqEG062C77
         K13G68V KC2013 04 12.92208 15 01 12.94 -02 35 45.5          18.6 VqEG062C77
         K13G68V KC2013 04 12.93761 15 01 06.27 -02 35 22.3          18.6 VqEG062C77
         K13G68V KC2013 04 12.94187 15 01 04.48 -02 35 15.7          18.4 VqEG062C77
         K13G68V KC2013 04 13.02550 15 00 29.35 -02 33 05.7          17.9 RvEG062J04
         K13G68V KC2013 04 13.02608 15 00 29.10 -02 33 04.8          17.9 RvEG062J04
         K13G68V KC2013 04 13.02666 15 00 28.84 -02 33 03.9          17.9 RvEG062J04
    
    Observer details:
    291 LPL/Spacewatch II.  Observer T. H. Bressi.  1.8-m f/2.7 reflector + CCD.
    691 Steward Observatory, Kitt Peak.  Observer T. H. Bressi.  0.9-m f/3
        reflector + CCD.
    C77 Bernezzo Observatory.  Observer A. Mantero.  0.25-m f/4 reflector + CCD.
    E23 Arcadia.  Observer A. Hidas.  0.35-m Schmidt-Cassegrain + CCD.
    H15 ISON-NM Observatory, Mayhill.  Observer L. Elenin.  0.45-m f/2.8
        astrograph + CCD.
    H36 Sandlot Observatory, Scranton.  Observer G. Hug.  0.56-m reflector + CCD.
    I39 Observatorio Cruz del Sur, San Justo.  Observers A. Chapman, N. D. Diaz.
        0.20-m f/4 reflector + CCD.
    J04 ESA Optical Ground Station, Tenerife.  Observer P. Ruiz.  Measurers
        A. Knoefel, D. Koschny, M. Busch, E. Schwab.  1.0-m f/4.4 reflector + CCD.
    
    Orbital elements:
    2013 GV68                                                Earth MOID = 0.0511 AU
    Epoch 2013 Apr. 18.0 TT = JDT 2456400.5                 MPC
    M  28.22295              (2000.0)            P               Q
    n   0.41866766     Peri.  256.23939     +0.40857699     -0.91251963
    a   1.7696598      Node   169.58210     +0.87323712     +0.38465879
    e   0.8769865      Incl.    6.12929     +0.26555938     +0.13908825
    P   2.35           H   18.9           G   0.15           U   9
    Residuals in seconds of arc
    130411 691  0.5+  0.1-    130412 I39  0.2+  0.1+    130412 C77  0.3-  0.3+
    130411 691  0.2+  0.2+    130412 I39  0.3-  0.0     130412 C77  1.1+  0.4-
    130411 691  2.4-  0.1+    130412 I39  0.1-  0.0     130412 C77  0.2+  0.4-
    130411 291  0.4+  0.2-    130412 H36  0.1-  0.0     130412 C77  0.6+  0.1-
    130411 291  0.3+  0.1-    130412 H36  0.2-  0.0     130413 J04  0.2-  0.0
    130411 291  0.4+  0.1-    130412 H36  1.2-  0.5-    130413 J04  0.3-  0.1+
    130411 H15  1.1+  0.4+    130412 E23  0.1+  0.4+    130413 J04  0.5-  0.1+
    130411 H15  0.2+  0.2-    130412 E23  0.2+  0.0
    130411 H15  0.6+  0.1+    130412 E23  0.2+  0.6+
    
    Ephemeris:
    2013 GV68                a,e,i = 1.77, 0.88, 6                   q = 0.2177
    Date    TT    R. A. (2000) Decl.     Delta      r     Elong.  Phase     V
    2013 03 14    19 42 56.4 -15 02 36   0.3399  0.8674    58.6   101.8    20.0
    ...
    2013 03 29    17 17 10.6 -10 18 39   0.2973  1.1289   108.6    57.0    18.6
    ...
    2013 04 06    15 57 20.2 -05 56 28   0.3244  1.2539   135.8    33.8    18.4
    ...
    2013 04 12    15 07 48.7 -02 59 03   0.3696  1.3423   153.0    19.8    18.4
    2013 04 13    15 00 39.7 -02 33 33   0.3790  1.3566   155.4    17.9    18.4
    2013 04 14    14 53 49.7 -02 09 22   0.3889  1.3708   157.7    16.1    18.4
    ...
    2013 04 20    14 19 09.8 -00 11 28   0.4575  1.4537   166.8     9.1    18.6
    ...
    2013 04 28    13 47 10.4 +01 22 46   0.5692  1.5588   162.4    11.3    19.3
    ...
    2013 05 13    13 15 42.2 +02 16 08   0.8224  1.7406   143.3    20.3    20.7
    
    A. U. Tomatic                (C) Copyright 2013 MPC           M.P.E.C. 2013-G62
    

    Read MPEC 2013-G61 Read MPEC 2013-G63


    MPEC number:

    Enter an MPEC number in one of the following forms:

    • 1997-B01 (the full form)
    • J97B01 (the packed version of the full form)
    • B01 (the abbreviated form)